Hourly Data Report for August 01, 2022

SANDSPIT
BRITISH COLUMBIA
Current Station Operator: NAVCAN

53°15'15.000" N
131°48'50.000" W
6.40 m
1057052
71111
YZP

Download Data

Hourly Data (August 2022)
Hourly Data Report for August 1, 2022
TIME
LST
Temp Definition
°C
Dew Point Definition
°C
Rel Hum Definition
%
Precip. Amount Definition
mm

Wind Dir Definition
10's deg

Wind Spd Definition
km/h
Visibility Definition
km
Stn Press Definition
kPa
Hmdx Definition


Wind Chill Definition


Weather Definition


00:00 15.6 11.2 75 0.0 29 28 16.1 101.74     LegendNANA
01:00 15.0 11.4 79 0.0 26 22 16.1 101.73     LegendNANA
02:00 15.3 11.6 79 0.0 26 24 16.1 101.74     LegendNANA
03:00 15.0 11.4 79 0.0 27 22 16.1 101.74     LegendNANA
04:00 14.2 11.6 84 0.0 26 21 16.1 101.72     LegendNANA
05:00 14.3 11.3 82 0.0 26 24 16.1 101.73     LegendNANA
06:00 14.7 11.5 81 0.0 26 26 16.1 101.69     LegendNANA
07:00 15.3 12.1 81 0.0 27 30 16.1 101.72     LegendNANA
08:00 16.0 12.2 78 0.0 27 30 16.1 101.75     LegendNANA
09:00 16.5 12.1 75 0.0 26 18 16.1 101.74     LegendNANA
10:00 17.3 12.5 73 0.0 26 24 16.1 101.74     LegendNANA
11:00 18.2 11.8 66 0.0 26 26 16.1 101.74     LegendNANA
12:00 18.9 12.0 64 0.0 27 21 16.1 101.76     LegendNANA
13:00 19.2 12.3 64 0.0 26 18 16.1 101.74     LegendNANA
14:00 17.7 13.3 75 0.0 1 9 16.1 101.78     LegendNANA
15:00 18.5 12.3 67 0.0 28 5 16.1 101.79     LegendNANA
16:00 19.5 12.7 65 0.0 28 9 16.1 101.78     LegendNANA
17:00 19.3 12.4 64 0.0 29 11 16.1 101.77     LegendNANA
18:00 19.4 13.0 66 0.0 30 18 16.1 101.77     LegendNANA
19:00 18.3 12.6 69 0.0 29 22 16.1 101.76     LegendNANA
20:00 16.9 12.3 74 0.0 26 21 16.1 101.76     LegendNANA
21:00 15.8 11.8 77 0.0 27 22 16.1 101.73     LegendNANA
22:00 15.0 11.8 81 0.0 25 22 16.1 101.74     LegendNANA
23:00 14.9 11.7 81 0.0 25 26 16.1 101.74     LegendNANA

Notes on Data Quality.

Legend

  • E = Estimated
  • M = Missing
  • NA = Not Available*
  • [empty] = Indicates an unobserved value
Date modified: